When you browse on this site, cookies collect data to enhance your experience and personalize the content and advertising you see.
Visit our Privacy Policy to learn more. By continuing to use the site, you agree to this use of cookies and data.
  • In Portugal
  • List of Countries
  • For 7 days
  • Water Temperature
  • Weather Map
  • Weather Widgets
  • user-avatar
    Login

    Hourly Weather Barra

    Today, 26 May, Tuesday

    Time Temperature Precipitation Wind Pressure Humidity
    00:00 +13°C° 0 mm 2 mps 753 mmHg 78%
    01:00 +13°C° 0 mm 2 mps 752 mmHg 79%
    02:00 +13°C° 0 mm 2 mps 752 mmHg 79%
    03:00 +13°C° 0 mm 2 mps 752 mmHg 79%
    04:00 +13°C° 0 mm 2 mps 751 mmHg 80%
    05:00 +13°C° 0 mm 2 mps 752 mmHg 80%
    06:00 +13°C° 0 mm 2 mps 752 mmHg 80%
    07:00 +13°C° 0 mm 2 mps 753 mmHg 80%
    08:00 +15°C° 0 mm 2 mps 753 mmHg 71%
    09:00 +18°C° 0 mm 2 mps 753 mmHg 63%
    10:00 +21°C° 0 mm 1 mps 753 mmHg 52%
    11:00 +21°C° 0 mm 2 mps 752 mmHg 51%
    12:00 +21°C° 0 mm 2 mps 752 mmHg 50%
    13:00 +21°C° 0 mm 3 mps 751 mmHg 49%
    14:00 +21°C° 0 mm 3 mps 751 mmHg 52%
    15:00 +21°C° 0 mm 3 mps 751 mmHg 54%
    16:00 +21°C° 0 mm 3 mps 751 mmHg 57%
    17:00 +19°C° 0 mm 2 mps 751 mmHg 64%
    18:00 +17°C° 0 mm 2 mps 751 mmHg 70%
    19:00 +15°C° 0 mm 2 mps 752 mmHg 77%
    20:00 +15°C° 0 mm 2 mps 752 mmHg 78%
    21:00 +14°C° 0 mm 1 mps 752 mmHg 78%
    22:00 +14°C° 0 mm 1 mps 753 mmHg 79%
    23:00 +14°C° 0 mm 2 mps 753 mmHg 79%

    Tomorrow, 27 May, Wednesday

    Time Temperature Precipitation Wind Pressure Humidity
    00:00 +14°C° 0 mm 2 mps 753 mmHg 79%
    01:00 +14°C° 0 mm 2 mps 752 mmHg 79%
    02:00 +14°C° 0 mm 2 mps 752 mmHg 80%
    03:00 +14°C° 0 mm 2 mps 752 mmHg 82%
    04:00 +13°C° 0 mm 2 mps 752 mmHg 83%
    05:00 +14°C° 0 mm 2 mps 752 mmHg 84%
    06:00 +14°C° 0 mm 2 mps 752 mmHg 86%
    07:00 +14°C° 0 mm 2 mps 753 mmHg 87%
    08:00 +16°C° 0 mm 2 mps 753 mmHg 80%
    09:00 +19°C° 0 mm 2 mps 753 mmHg 73%
    10:00 +21°C° 0 mm 2 mps 754 mmHg 65%
    11:00 +22°C° 0 mm 3 mps 753 mmHg 65%
    12:00 +22°C° 0 mm 3 mps 752 mmHg 65%
    13:00 +24°C° 0 mm 3 mps 752 mmHg 65%
    14:00 +22°C° 0 mm 3 mps 751 mmHg 67%
    15:00 +22°C° 0 mm 3 mps 751 mmHg 70%
    16:00 +21°C° 0 mm 3 mps 751 mmHg 73%
    17:00 +20°C° 0 mm 3 mps 751 mmHg 79%
    18:00 +19°C° 0 mm 3 mps 752 mmHg 84%
    19:00 +17°C° 0 mm 2 mps 752 mmHg 90%
    20:00 +17°C° 0 mm 2 mps 752 mmHg 91%
    21:00 +17°C° 0 mm 2 mps 753 mmHg 91%
    22:00 +16°C° 0 mm 2 mps 753 mmHg 92%
    23:00 +16°C° 0 mm 2 mps 753 mmHg 92%

    Day after tomorrow, 28 May, Thursday

    Time Temperature Precipitation Wind Pressure Humidity
    00:00 +16°C° 0 mm 2 mps 752 mmHg 93%
    01:00 +16°C° 0 mm 2 mps 752 mmHg 93%
    02:00 +16°C° 0 mm 2 mps 752 mmHg 93%
    03:00 +16°C° 0 mm 2 mps 752 mmHg 92%
    04:00 +15°C° 0 mm 2 mps 752 mmHg 92%
    05:00 +15°C° 0 mm 2 mps 752 mmHg 92%
    06:00 +15°C° 0 mm 2 mps 752 mmHg 92%
    07:00 +15°C° 0 mm 2 mps 753 mmHg 91%
    08:00 +18°C° 0 mm 2 mps 753 mmHg 83%
    09:00 +20°C° 0 mm 2 mps 753 mmHg 76%
    10:00 +22°C° 0 mm 3 mps 753 mmHg 68%
    11:00 +24°C° 0 mm 3 mps 753 mmHg 67%
    12:00 +24°C° 0 mm 3 mps 752 mmHg 65%
    13:00 +23°C° 0 mm 4 mps 752 mmHg 64%
    14:00 +24°C° 0 mm 3 mps 751 mmHg 65%
    15:00 +24°C° 0 mm 3 mps 751 mmHg 66%
    16:00 +24°C° 0 mm 3 mps 751 mmHg 67%
    17:00 +21°C° 0 mm 3 mps 751 mmHg 74%
    18:00 +19°C° 0 mm 2 mps 752 mmHg 80%
    19:00 +18°C° 0 mm 2 mps 752 mmHg 87%
    20:00 +17°C° 0 mm 2 mps 753 mmHg 88%
    21:00 +17°C° 0 mm 2 mps 753 mmHg 89%
    22:00 +17°C° 0 mm 2 mps 753 mmHg 90%
    23:00 +16°C° 0 mm 2 mps 753 mmHg 90%

    29 May, Friday

    Time Temperature Precipitation Wind Pressure Humidity
    00:00 +16°C° 0 mm 2 mps 753 mmHg 90%
    01:00 +16°C° 0 mm 2 mps 753 mmHg 90%
    02:00 +16°C° 0 mm 2 mps 753 mmHg 91%
    03:00 +16°C° 0 mm 2 mps 752 mmHg 91%
    04:00 +16°C° 0 mm 2 mps 752 mmHg 91%
    05:00 +16°C° 0 mm 2 mps 752 mmHg 92%
    06:00 +16°C° 0 mm 3 mps 753 mmHg 92%
    07:00 +16°C° 0 mm 3 mps 753 mmHg 93%
    08:00 +19°C° 0 mm 3 mps 753 mmHg 85%
    09:00 +21°C° 0 mm 3 mps 753 mmHg 77%
    10:00 +24°C° 0 mm 3 mps 753 mmHg 68%
    11:00 +24°C° 0 mm 3 mps 753 mmHg 65%
    12:00 +25°C° 0 mm 4 mps 752 mmHg 61%
    13:00 +25°C° 0 mm 4 mps 752 mmHg 58%
    14:00 +25°C° 0 mm 4 mps 751 mmHg 58%
    15:00 +25°C° 0 mm 4 mps 751 mmHg 59%
    16:00 +23°C° 0 mm 4 mps 751 mmHg 59%
    17:00 +22°C° 0 mm 3 mps 751 mmHg 66%
    18:00 +20°C° 0 mm 3 mps 752 mmHg 73%
    19:00 +18°C° 0 mm 3 mps 752 mmHg 80%
    20:00 +18°C° 0 mm 3 mps 753 mmHg 80%
    21:00 +18°C° 0 mm 3 mps 753 mmHg 81%
    22:00 +18°C° 0 mm 3 mps 753 mmHg 82%
    23:00 +18°C° 0 mm 3 mps 753 mmHg 82%

    30 May, Saturday

    Time Temperature Precipitation Wind Pressure Humidity
    00:00 +19°C° 0 mm 3 mps 753 mmHg 82%
    01:00 +19°C° 0 mm 3 mps 753 mmHg 82%
    02:00 +19°C° 0 mm 4 mps 752 mmHg 84%
    03:00 +18°C° 0 mm 4 mps 752 mmHg 86%
    04:00 +18°C° 0 mm 4 mps 752 mmHg 89%
    05:00 +18°C° 0 mm 4 mps 752 mmHg 89%
    06:00 +18°C° 0 mm 4 mps 753 mmHg 89%
    07:00 +17°C° 0 mm 4 mps 753 mmHg 89%
    08:00 +19°C° 0 mm 4 mps 753 mmHg 84%
    09:00 +20°C° 0 mm 3 mps 753 mmHg 79%
    10:00 +22°C° 0 mm 3 mps 753 mmHg 75%
    11:00 +22°C° 0 mm 4 mps 753 mmHg 76%
    12:00 +22°C° 0 mm 4 mps 752 mmHg 77%
    13:00 +22°C° 0 mm 4 mps 752 mmHg 79%
    14:00 +22°C° 0 mm 4 mps 752 mmHg 80%
    15:00 +22°C° 0 mm 4 mps 751 mmHg 82%
    16:00 +24°C° 0 mm 3 mps 751 mmHg 83%
    17:00 +22°C° 0.1 mm 3 mps 752 mmHg 86%
    18:00 +22°C° 0.1 mm 3 mps 752 mmHg 88%
    19:00 +21°C° 0.1 mm 3 mps 752 mmHg 91%
    20:00 +21°C° 0.1 mm 3 mps 753 mmHg 92%
    21:00 +21°C° 0.1 mm 3 mps 753 mmHg 92%
    22:00 +21°C° 0.1 mm 3 mps 753 mmHg 92%
    23:00 +21°C° 0.2 mm 3 mps 753 mmHg 93%

    31 May, Sunday

    Time Temperature Precipitation Wind Pressure Humidity
    00:00 +21°C° 0.2 mm 3 mps 753 mmHg 94%
    01:00 +21°C° 0.2 mm 2 mps 752 mmHg 94%
    02:00 +21°C° 0.2 mm 2 mps 752 mmHg 95%
    03:00 +21°C° 0.2 mm 2 mps 752 mmHg 95%
    04:00 +21°C° 0.2 mm 2 mps 752 mmHg 95%
    05:00 +21°C° 0.3 mm 2 mps 752 mmHg 96%
    06:00 +21°C° 0.3 mm 3 mps 753 mmHg 96%
    07:00 +21°C° 0.3 mm 3 mps 753 mmHg 96%
    08:00 +21°C° 0.4 mm 3 mps 753 mmHg 95%
    09:00 +22°C° 0.4 mm 3 mps 753 mmHg 94%
    10:00 +22°C° 0.4 mm 3 mps 754 mmHg 93%
    11:00 +24°C° 0.4 mm 3 mps 753 mmHg 93%
    12:00 +24°C° 0.4 mm 3 mps 752 mmHg 92%
    13:00 +24°C° 0.4 mm 3 mps 752 mmHg 91%
    14:00 +24°C° 0.4 mm 3 mps 752 mmHg 91%
    15:00 +24°C° 0.4 mm 3 mps 751 mmHg 91%
    16:00 +24°C° 0.4 mm 3 mps 751 mmHg 91%
    17:00 +22°C° 0.3 mm 3 mps 751 mmHg 92%
    18:00 +22°C° 0.3 mm 3 mps 752 mmHg 93%
    19:00 +21°C° 0.3 mm 3 mps 752 mmHg 95%
    20:00 +21°C° 0.4 mm 3 mps 753 mmHg 95%
    21:00 +21°C° 0.4 mm 3 mps 753 mmHg 95%
    22:00 +21°C° 0.4 mm 3 mps 753 mmHg 95%
    23:00 +21°C° 0.6 mm 3 mps 753 mmHg 94%
    Show more